Location: Riverside Cemetery
(38.3047°N, 99.7773°W)
Time: 11:39:49
(UTC+00:00)

Cosmos 1536 Rocket - Pass Details

Date: 19 September 2020
Orbit: 606 x 632 km, 82.5° (Epoch: 30 October)

Event Time Altitude Azimuth Distance (km) Brightness Sun altitude
Rises 02:40:17 0° 351° (N) 2,915 7.4 -23.5°
Reaches altitude 10° 02:42:31 10° 350° (N) 2,007 6.6 -24.0°
Maximum altitude 02:46:58 79° 264° (W) 644 3.6 -24.8°
Enters shadow 02:47:11 76° 224° (SW) 652 3.6 -24.8°
